Sign-in with your pilot id or email, or register

ICAO: LHBP Name / Country: Budapest / Ferihegy / Hungary
Latitude: 47.4369 Longitude: 19.2556
Total Arrivals:
Deprecated: Non-static method AirportData::getarrflights() should not be called statically, assuming $this from incompatible context in /var/www/customers/vh-7192/web/home/phpvms/core/templates/airport_info.tpl on line 18
192
Total Departures:
Deprecated: Non-static method AirportData::getdeptflights() should not be called statically, assuming $this from incompatible context in /var/www/customers/vh-7192/web/home/phpvms/core/templates/airport_info.tpl on line 21
153
Latest Arrival: MTA474 (LDZA-LHBP) Tibor Berces Latest Departure: MTA517 (LHBP-EDDS) Tibor Berces
Metar: LHBP 211230Z 23004KT 190V280 9999 SCT045 15/04 Q1025 NOSIG
More info

Charts for LHBP


NOTAM


Warning: file_get_contents(http://api.vateud.net/notams/LHBP.json): failed to open stream: HTTP request failed! HTTP/1.1 404 Not Found in /var/www/customers/vh-7192/web/home/phpvms/core/common/NOTAMSData.class.php on line 18

Warning: Invalid argument supplied for foreach() in /var/www/customers/vh-7192/web/home/phpvms/core/common/NOTAMSData.class.php on line 22

Budapest / Ferihegy